Time,TemperatureF,DewpointF,PressureIn,WindDirection,WindDirectionDegrees,WindSpeedMPH,WindSpeedGustMPH,Humidity,HourlyPrecipIn,Conditions,Clouds,dailyrainin,SoftwareType,DateUTC
2013-03-19 00:00:00,68.0,64.0,32.42,South,180,0.0,1.0,87,0.00,,,0.00,Weather View 32 v70,2013-03-19 04:00:00,
2013-03-19 00:05:00,68.0,63.6,32.43,South,180,0.0,1.0,86,0.00,,,0.00,Weather View 32 v70,2013-03-19 04:05:00,
2013-03-19 00:10:00,68.0,63.6,32.43,South,180,0.0,0.0,86,0.00,,,0.00,Weather View 32 v70,2013-03-19 04:10:00,
2013-03-19 00:15:00,68.0,63.6,32.43,South,180,0.0,0.0,86,0.00,,,0.00,Weather View 32 v70,2013-03-19 04:15:00,
2013-03-19 00:20:00,68.0,63.6,32.43,South,180,0.0,0.0,86,0.00,,,0.00,Weather View 32 v70,2013-03-19 04:20:00,
2013-03-19 00:25:00,68.0,63.6,32.44,ENE,67,0.0,0.0,86,0.00,,,0.00,Weather View 32 v70,2013-03-19 04:25:00,
2013-03-19 00:30:00,68.0,63.6,32.44,ENE,67,0.0,0.0,86,0.00,,,0.00,Weather View 32 v70,2013-03-19 04:30:00,
2013-03-19 00:35:00,68.0,63.6,32.45,ENE,67,0.0,0.0,86,0.00,,,0.00,Weather View 32 v70,2013-03-19 04:35:00,
2013-03-19 00:40:00,68.0,63.6,32.45,ENE,67,0.0,0.0,86,0.00,,,0.00,Weather View 32 v70,2013-03-19 04:40:00,
2013-03-19 00:45:00,68.0,63.6,32.45,ENE,67,0.0,0.0,86,0.00,,,0.00,Weather View 32 v70,2013-03-19 04:45:00,
2013-03-19 00:50:00,68.0,63.6,32.45,ENE,67,0.0,0.0,86,0.00,,,0.00,Weather View 32 v70,2013-03-19 04:50:00,
2013-03-19 00:55:00,67.0,62.7,32.45,ENE,67,0.0,0.0,86,0.00,,,0.00,Weather View 32 v70,2013-03-19 04:55:00,
2013-03-19 01:00:00,67.0,62.7,32.45,ENE,67,0.0,0.0,86,0.00,,,0.00,Weather View 32 v70,2013-03-19 05:00:00,
2013-03-19 01:05:00,67.0,62.7,32.46,ENE,67,0.0,0.0,86,0.00,,,0.00,Weather View 32 v70,2013-03-19 05:05:00,
2013-03-19 01:10:00,67.0,62.7,32.46,ENE,67,0.0,0.0,86,0.00,,,0.00,Weather View 32 v70,2013-03-19 05:10:00,
2013-03-19 01:15:00,67.0,62.7,32.46,ENE,67,0.0,0.0,86,0.00,,,0.00,Weather View 32 v70,2013-03-19 05:15:00,
2013-03-19 01:20:00,67.0,62.3,32.46,ENE,67,0.0,0.0,85,0.00,,,0.00,Weather View 32 v70,2013-03-19 05:20:00,
2013-03-19 01:25:00,67.0,62.3,32.46,ENE,67,0.0,0.0,85,0.00,,,0.00,Weather View 32 v70,2013-03-19 05:25:00,
2013-03-19 01:30:00,67.0,62.3,32.46,ENE,67,0.0,0.0,85,0.00,,,0.00,Weather View 32 v70,2013-03-19 05:30:00,
2013-03-19 01:35:00,66.0,61.3,32.45,ENE,67,0.0,0.0,85,0.00,,,0.00,Weather View 32 v70,2013-03-19 05:35:00,
2013-03-19 01:40:00,66.0,61.3,32.45,ENE,67,0.0,0.0,85,0.00,,,0.00,Weather View 32 v70,2013-03-19 05:40:00,
2013-03-19 01:45:00,66.0,61.3,32.45,ENE,67,0.0,0.0,85,0.00,,,0.00,Weather View 32 v70,2013-03-19 05:45:00,
2013-03-19 01:50:00,66.0,61.3,32.45,ENE,67,0.0,0.0,85,0.00,,,0.00,Weather View 32 v70,2013-03-19 05:50:00,
2013-03-19 01:55:00,65.0,60.4,32.45,ENE,67,0.0,0.0,85,0.00,,,0.00,Weather View 32 v70,2013-03-19 05:55:00,
2013-03-19 02:00:00,65.0,60.4,32.45,ENE,67,0.0,0.0,85,0.00,,,0.00,Weather View 32 v70,2013-03-19 06:00:00,
2013-03-19 02:05:00,65.0,60.4,32.44,ENE,67,0.0,0.0,85,0.00,,,0.00,Weather View 32 v70,2013-03-19 06:05:00,
2013-03-19 02:10:00,65.0,60.4,32.44,ENE,67,0.0,0.0,85,0.00,,,0.00,Weather View 32 v70,2013-03-19 06:10:00,
2013-03-19 02:15:00,65.0,60.4,32.43,ENE,67,0.0,0.0,85,0.00,,,0.00,Weather View 32 v70,2013-03-19 06:15:00,
2013-03-19 02:20:00,65.0,60.4,32.43,ENE,67,0.0,0.0,85,0.00,,,0.00,Weather View 32 v70,2013-03-19 06:20:00,
2013-03-19 02:25:00,65.0,60.4,32.44,ENE,67,0.0,0.0,85,0.00,,,0.00,Weather View 32 v70,2013-03-19 06:25:00,
2013-03-19 02:30:00,65.0,60.4,32.44,ENE,67,0.0,0.0,85,0.00,,,0.00,Weather View 32 v70,2013-03-19 06:30:00,
2013-03-19 02:35:00,65.0,60.4,32.43,ENE,67,0.0,0.0,85,0.00,,,0.00,Weather View 32 v70,2013-03-19 06:35:00,
2013-03-19 02:40:00,65.0,60.4,32.43,ENE,67,0.0,0.0,85,0.00,,,0.00,Weather View 32 v70,2013-03-19 06:40:00,
2013-03-19 02:45:00,65.0,60.0,32.43,ENE,67,0.0,0.0,84,0.00,,,0.00,Weather View 32 v70,2013-03-19 06:45:00,
2013-03-19 02:50:00,64.0,59.1,32.43,ENE,67,0.0,0.0,84,0.00,,,0.00,Weather View 32 v70,2013-03-19 06:50:00,
2013-03-19 02:55:00,64.0,59.1,32.42,ENE,67,0.0,0.0,84,0.00,,,0.00,Weather View 32 v70,2013-03-19 06:55:00,
2013-03-19 03:00:00,64.0,59.1,32.42,ENE,67,0.0,0.0,84,0.00,,,0.00,Weather View 32 v70,2013-03-19 07:00:00,
2013-03-19 03:05:00,64.0,59.1,32.40,ENE,67,0.0,0.0,84,0.00,,,0.00,Weather View 32 v70,2013-03-19 07:05:00,
2013-03-19 03:10:00,64.0,59.1,32.40,ENE,67,0.0,0.0,84,0.00,,,0.00,Weather View 32 v70,2013-03-19 07:10:00,
2013-03-19 03:15:00,64.0,59.1,32.39,ENE,67,0.0,0.0,84,0.00,,,0.00,Weather View 32 v70,2013-03-19 07:15:00,
2013-03-19 03:20:00,64.0,59.1,32.39,ENE,67,0.0,0.0,84,0.00,,,0.00,Weather View 32 v70,2013-03-19 07:20:00,
2013-03-19 03:25:00,64.0,59.1,32.37,ENE,67,0.0,0.0,84,0.00,,,0.00,Weather View 32 v70,2013-03-19 07:25:00,
2013-03-19 03:30:00,64.0,59.1,32.37,ENE,67,0.0,0.0,84,0.00,,,0.00,Weather View 32 v70,2013-03-19 07:30:00,
2013-03-19 03:35:00,64.0,59.1,32.35,ENE,67,0.0,0.0,84,0.00,,,0.00,Weather View 32 v70,2013-03-19 07:35:00,
2013-03-19 03:40:00,64.0,59.1,32.35,ENE,67,0.0,0.0,84,0.00,,,0.00,Weather View 32 v70,2013-03-19 07:40:00,
2013-03-19 03:45:00,63.0,57.4,32.33,ENE,67,0.0,0.0,82,0.00,,,0.00,Weather View 32 v70,2013-03-19 07:45:00,
2013-03-19 03:50:00,63.0,57.4,32.33,ENE,67,0.0,0.0,82,0.00,,,0.00,Weather View 32 v70,2013-03-19 07:50:00,
2013-03-19 03:55:00,63.0,57.4,32.31,ENE,67,0.0,0.0,82,0.00,,,0.00,Weather View 32 v70,2013-03-19 07:55:00,
2013-03-19 04:00:00,63.0,57.4,32.31,ENE,67,0.0,0.0,82,0.00,,,0.00,Weather View 32 v70,2013-03-19 08:00:00,
2013-03-19 04:05:00,63.0,57.4,32.29,ENE,67,0.0,0.0,82,0.00,,,0.00,Weather View 32 v70,2013-03-19 08:05:00,
2013-03-19 04:10:00,63.0,57.4,32.29,ENE,67,0.0,0.0,82,0.00,,,0.00,Weather View 32 v70,2013-03-19 08:10:00,
2013-03-19 04:15:00,63.0,57.4,32.27,ENE,67,0.0,0.0,82,0.00,,,0.00,Weather View 32 v70,2013-03-19 08:15:00,
2013-03-19 04:20:00,63.0,57.4,32.27,ENE,67,0.0,0.0,82,0.00,,,0.00,Weather View 32 v70,2013-03-19 08:20:00,
2013-03-19 04:25:00,63.0,57.4,32.25,ENE,67,0.0,0.0,82,0.00,,,0.00,Weather View 32 v70,2013-03-19 08:25:00,
2013-03-19 04:30:00,62.0,56.4,32.25,ENE,67,0.0,0.0,82,0.00,,,0.00,Weather View 32 v70,2013-03-19 08:30:00,
2013-03-19 04:35:00,62.0,56.4,32.23,ENE,67,0.0,0.0,82,0.00,,,0.00,Weather View 32 v70,2013-03-19 08:35:00,
2013-03-19 04:40:00,63.0,57.4,32.23,ENE,67,0.0,0.0,82,0.00,,,0.00,Weather View 32 v70,2013-03-19 08:40:00,
2013-03-19 04:45:00,63.0,57.4,32.21,ENE,67,0.0,0.0,82,0.00,,,0.00,Weather View 32 v70,2013-03-19 08:45:00,
2013-03-19 04:50:00,63.0,57.4,32.21,ENE,67,0.0,0.0,82,0.00,,,0.00,Weather View 32 v70,2013-03-19 08:50:00,
2013-03-19 04:55:00,63.0,57.4,32.19,ENE,67,0.0,0.0,82,0.00,,,0.00,Weather View 32 v70,2013-03-19 08:55:00,
2013-03-19 05:00:00,62.0,56.4,32.19,ENE,67,0.0,0.0,82,0.00,,,0.00,Weather View 32 v70,2013-03-19 09:00:00,
2013-03-19 05:05:00,62.0,56.4,32.17,ENE,67,0.0,0.0,82,0.00,,,0.00,Weather View 32 v70,2013-03-19 09:05:00,
2013-03-19 05:10:00,62.0,56.4,32.17,ENE,67,0.0,0.0,82,0.00,,,0.00,Weather View 32 v70,2013-03-19 09:10:00,
2013-03-19 05:15:00,62.0,56.4,32.15,ENE,67,0.0,0.0,82,0.00,,,0.00,Weather View 32 v70,2013-03-19 09:15:00,
2013-03-19 05:20:00,62.0,56.4,32.15,ENE,67,0.0,0.0,82,0.00,,,0.00,Weather View 32 v70,2013-03-19 09:20:00,
2013-03-19 05:25:00,62.0,56.4,32.13,ENE,67,0.0,0.0,82,0.00,,,0.00,Weather View 32 v70,2013-03-19 09:25:00,
2013-03-19 05:30:00,62.0,56.4,32.13,ENE,67,0.0,0.0,82,0.00,,,0.00,Weather View 32 v70,2013-03-19 09:30:00,
2013-03-19 05:35:00,62.0,56.4,32.11,ENE,67,0.0,0.0,82,0.00,,,0.00,Weather View 32 v70,2013-03-19 09:35:00,
2013-03-19 05:40:00,62.0,56.4,32.11,ENE,67,0.0,0.0,82,0.00,,,0.00,Weather View 32 v70,2013-03-19 09:40:00,
2013-03-19 05:45:00,62.0,56.4,32.09,ENE,67,0.0,0.0,82,0.00,,,0.00,Weather View 32 v70,2013-03-19 09:45:00,
2013-03-19 05:50:00,62.0,56.4,32.09,ENE,67,0.0,0.0,82,0.00,,,0.00,Weather View 32 v70,2013-03-19 09:50:00,
2013-03-19 05:55:00,62.0,56.4,32.09,ENE,67,0.0,0.0,82,0.00,,,0.00,Weather View 32 v70,2013-03-19 09:55:00,
2013-03-19 06:00:00,62.0,56.4,32.09,ENE,67,0.0,0.0,82,0.00,,,0.00,Weather View 32 v70,2013-03-19 10:00:00,
2013-03-19 06:05:00,62.0,56.1,32.07,ENE,67,0.0,0.0,81,0.00,,,0.00,Weather View 32 v70,2013-03-19 10:05:00,
2013-03-19 06:10:00,62.0,56.1,32.07,ENE,67,0.0,0.0,81,0.00,,,0.00,Weather View 32 v70,2013-03-19 10:10:00,
2013-03-19 06:15:00,62.0,56.1,32.07,ENE,67,0.0,0.0,81,0.00,,,0.00,Weather View 32 v70,2013-03-19 10:15:00,
2013-03-19 06:20:00,62.0,56.1,32.07,ENE,67,0.0,0.0,81,0.00,,,0.00,Weather View 32 v70,2013-03-19 10:20:00,
2013-03-19 06:25:00,63.0,57.1,32.07,ENE,67,0.0,0.0,81,0.00,,,0.00,Weather View 32 v70,2013-03-19 10:25:00,
2013-03-19 06:30:00,63.0,57.1,32.07,ENE,67,0.0,0.0,81,0.00,,,0.00,Weather View 32 v70,2013-03-19 10:30:00,
2013-03-19 06:35:00,63.0,57.1,32.07,ENE,67,0.0,0.0,81,0.00,,,0.00,Weather View 32 v70,2013-03-19 10:35:00,
2013-03-19 06:40:00,63.0,57.1,32.07,ENE,67,0.0,0.0,81,0.00,,,0.00,Weather View 32 v70,2013-03-19 10:40:00,
2013-03-19 06:45:00,63.0,57.1,32.06,ENE,67,0.0,0.0,81,0.00,,,0.00,Weather View 32 v70,2013-03-19 10:45:00,
2013-03-19 06:50:00,63.0,57.1,32.06,ENE,67,0.0,0.0,81,0.00,,,0.00,Weather View 32 v70,2013-03-19 10:50:00,
2013-03-19 07:00:00,63.0,57.1,32.05,East,90,0.0,1.0,81,0.00,,,0.00,Weather View 32 v70,2013-03-19 11:00:00,
2013-03-19 07:30:00,63.0,57.1,32.09,ESE,112,0.0,1.0,81,0.00,,,0.00,Weather View 32 v70,2013-03-19 11:30:00,
2013-03-19 08:00:00,63.0,57.1,32.08,ESE,112,0.0,0.0,81,0.00,,,0.00,Weather View 32 v70,2013-03-19 12:00:00,
2013-03-19 08:30:00,63.0,57.1,32.05,East,90,0.0,0.0,81,0.00,,,0.00,Weather View 32 v70,2013-03-19 12:30:00,
2013-03-19 09:00:00,64.0,58.4,32.05,East,90,0.0,0.0,82,0.00,,,0.00,Weather View 32 v70,2013-03-19 13:00:00,
2013-03-19 09:30:00,67.0,61.3,32.10,East,90,0.0,0.0,82,0.00,,,0.00,Weather View 32 v70,2013-03-19 13:30:00,
2013-03-19 10:00:00,74.0,63.1,32.32,ESE,112,0.0,2.0,69,0.00,,,0.00,Weather View 32 v70,2013-03-19 14:00:00,
2013-03-19 10:30:00,77.0,61.5,31.65,East,90,0.0,2.0,59,0.00,,,0.00,Weather View 32 v70,2013-03-19 14:30:00,
2013-03-19 11:00:00,81.0,62.7,31.07,East,90,0.0,2.0,54,0.00,,,0.00,Weather View 32 v70,2013-03-19 15:00:00,
2013-03-19 11:30:00,83.0,61.8,30.71,East,90,0.0,2.0,49,0.00,,,0.00,Weather View 32 v70,2013-03-19 15:30:00,
2013-03-19 12:00:00,83.0,60.0,30.46,East,90,0.0,2.0,46,0.00,,,0.00,Weather View 32 v70,2013-03-19 16:00:00,
2013-03-19 12:30:00,81.0,61.1,30.58,East,90,0.0,0.0,51,0.00,,,0.00,Weather View 32 v70,2013-03-19 16:30:00,
2013-03-19 13:00:00,78.0,60.0,30.98,ESE,112,0.0,0.0,54,0.00,,,0.00,Weather View 32 v70,2013-03-19 17:00:00,
2013-03-19 13:30:00,80.0,60.2,31.19,East,90,0.0,0.0,51,0.00,,,0.00,Weather View 32 v70,2013-03-19 17:30:00,
2013-03-19 14:00:00,79.0,58.7,31.35,East,90,0.0,0.0,50,0.00,,,0.00,Weather View 32 v70,2013-03-19 18:00:00,
2013-03-19 14:30:00,79.0,58.1,31.48,East,90,0.0,0.0,49,0.00,,,0.00,Weather View 32 v70,2013-03-19 18:30:00,
2013-03-19 15:00:00,80.0,57.9,31.57,SSE,157,0.0,0.0,47,0.00,,,0.00,Weather View 32 v70,2013-03-19 19:00:00,
2013-03-19 15:30:00,81.0,58.2,31.65,East,90,0.0,0.0,46,0.00,,,0.00,Weather View 32 v70,2013-03-19 19:30:00,
2013-03-19 16:00:00,81.0,58.2,31.73,East,90,0.0,0.0,46,0.00,,,0.00,Weather View 32 v70,2013-03-19 20:00:00,
2013-03-19 16:30:00,82.0,57.9,31.80,East,90,0.0,0.0,44,0.00,,,0.00,Weather View 32 v70,2013-03-19 20:30:00,
2013-03-19 17:00:00,82.0,58.5,31.86,East,90,0.0,0.0,45,0.00,,,0.00,Weather View 32 v70,2013-03-19 21:00:00,
2013-03-19 17:05:00,82.0,58.5,31.86,East,90,0.0,0.0,45,0.00,,,0.00,Weather View 32 v70,2013-03-19 21:05:00,
2013-03-19 17:30:00,82.0,56.6,31.93,East,90,0.0,0.0,42,0.00,,,0.00,Weather View 32 v70,2013-03-19 21:30:00,
2013-03-19 18:00:00,81.0,57.0,31.98,East,90,0.0,0.0,44,0.00,,,0.00,Weather View 32 v70,2013-03-19 22:00:00,
2013-03-19 18:06:00,81.0,57.0,31.98,East,90,0.0,0.0,44,0.00,,,0.00,Weather View 32 v70,2013-03-19 22:06:00,
2013-03-19 18:24:00,80.0,56.1,32.03,East,90,0.0,0.0,44,0.00,,,0.00,Weather View 32 v70,2013-03-19 22:24:00,
2013-03-19 18:29:00,80.0,56.7,32.03,East,90,0.0,0.0,45,0.00,,,0.00,Weather View 32 v70,2013-03-19 22:29:00,
2013-03-19 18:34:00,80.0,56.1,32.05,East,90,0.0,0.0,44,0.00,,,0.00,Weather View 32 v70,2013-03-19 22:34:00,
2013-03-19 18:39:00,80.0,56.7,32.05,East,90,0.0,0.0,45,0.00,,,0.00,Weather View 32 v70,2013-03-19 22:39:00,
2013-03-19 18:44:00,80.0,56.7,32.07,East,90,0.0,0.0,45,0.00,,,0.00,Weather View 32 v70,2013-03-19 22:44:00,
2013-03-19 18:49:00,80.0,57.3,32.07,East,90,0.0,0.0,46,0.00,,,0.00,Weather View 32 v70,2013-03-19 22:49:00,
2013-03-19 18:54:00,80.0,57.9,32.09,East,90,0.0,0.0,47,0.00,,,0.00,Weather View 32 v70,2013-03-19 22:54:00,
2013-03-19 18:59:00,80.0,56.1,32.09,East,90,0.0,0.0,44,0.00,,,0.00,Weather View 32 v70,2013-03-19 22:59:00,
2013-03-19 19:00:00,80.0,56.1,32.09,East,90,0.0,0.0,44,0.00,,,0.00,Weather View 32 v70,2013-03-19 23:00:00,
2013-03-19 19:04:00,80.0,57.9,32.11,East,90,0.0,0.0,47,0.00,,,0.00,Weather View 32 v70,2013-03-19 23:04:00,
2013-03-19 19:09:00,80.0,58.5,32.11,SE,135,0.0,0.0,48,0.00,,,0.00,Weather View 32 v70,2013-03-19 23:09:00,
2013-03-19 19:14:00,79.0,57.6,32.14,East,90,0.0,0.0,48,0.00,,,0.00,Weather View 32 v70,2013-03-19 23:14:00,
2013-03-19 19:19:00,79.0,58.1,32.14,East,90,0.0,0.0,49,0.00,,,0.00,Weather View 32 v70,2013-03-19 23:19:00,
2013-03-19 19:25:00,78.0,57.8,32.15,East,90,0.0,0.0,50,0.00,,,0.00,Weather View 32 v70,2013-03-19 23:25:00,
2013-03-19 19:30:00,78.0,58.3,32.15,East,90,0.0,0.0,51,0.00,,,0.00,Weather View 32 v70,2013-03-19 23:30:00,
2013-03-19 19:34:00,77.0,57.4,32.17,East,90,0.0,0.0,51,0.00,,,0.00,Weather View 32 v70,2013-03-19 23:34:00,
2013-03-19 19:39:00,77.0,58.0,32.17,East,90,0.0,0.0,52,0.00,,,0.00,Weather View 32 v70,2013-03-19 23:39:00,
2013-03-19 19:45:00,77.0,58.5,32.19,East,90,0.0,0.0,53,0.00,,,0.00,Weather View 32 v70,2013-03-19 23:45:00,
2013-03-19 19:49:00,76.0,57.6,32.19,East,90,0.0,0.0,53,0.00,,,0.00,Weather View 32 v70,2013-03-19 23:49:00,
2013-03-19 19:54:00,76.0,58.1,32.20,East,90,0.0,0.0,54,0.00,,,0.00,Weather View 32 v70,2013-03-19 23:54:00,
2013-03-19 20:00:00,76.0,58.6,32.20,East,90,0.0,0.0,55,0.00,,,0.00,Weather View 32 v70,2013-03-20 00:00:00,
2013-03-19 20:05:00,75.0,57.7,32.22,East,90,0.0,0.0,55,0.00,,,0.00,Weather View 32 v70,2013-03-20 00:05:00,
2013-03-19 20:09:00,75.0,58.2,32.22,East,90,0.0,0.0,56,0.00,,,0.00,Weather View 32 v70,2013-03-20 00:09:00,
2013-03-19 20:14:00,75.0,58.2,32.23,East,90,0.0,0.0,56,0.00,,,0.00,Weather View 32 v70,2013-03-20 00:14:00,
2013-03-19 20:19:00,75.0,58.7,32.23,East,90,0.0,0.0,57,0.00,,,0.00,Weather View 32 v70,2013-03-20 00:19:00,
2013-03-19 20:25:00,74.0,58.2,32.25,East,90,0.0,1.0,58,0.00,,,0.00,Weather View 32 v70,2013-03-20 00:25:00,
2013-03-19 20:29:00,74.0,58.2,32.25,ESE,112,0.0,3.0,58,0.00,,,0.00,Weather View 32 v70,2013-03-20 00:29:00,
2013-03-19 20:34:00,74.0,58.7,32.27,ESE,112,0.0,3.0,59,0.00,,,0.00,Weather View 32 v70,2013-03-20 00:34:00,
2013-03-19 20:39:00,74.0,58.7,32.27,ESE,112,0.0,3.0,59,0.00,,,0.00,Weather View 32 v70,2013-03-20 00:39:00,
2013-03-19 20:44:00,73.0,58.2,32.29,East,90,0.0,3.0,60,0.00,,,0.00,Weather View 32 v70,2013-03-20 00:44:00,
2013-03-19 20:50:00,73.0,58.2,32.29,East,90,0.0,3.0,60,0.00,,,0.00,Weather View 32 v70,2013-03-20 00:50:00,
2013-03-19 20:55:00,73.0,58.2,32.30,East,90,0.0,3.0,60,0.00,,,0.00,Weather View 32 v70,2013-03-20 00:55:00,
2013-03-19 20:59:00,73.0,58.7,32.30,East,90,0.0,3.0,61,0.00,,,0.00,Weather View 32 v70,2013-03-20 00:59:00,
2013-03-19 21:00:00,73.0,58.7,32.30,East,90,0.0,3.0,61,0.00,,,0.00,Weather View 32 v70,2013-03-20 01:00:00,
2013-03-19 21:05:00,73.0,58.7,32.31,East,90,0.0,3.0,61,0.00,,,0.00,Weather View 32 v70,2013-03-20 01:05:00,
2013-03-19 21:09:00,73.0,58.7,32.31,East,90,0.0,3.0,61,0.00,,,0.00,Weather View 32 v70,2013-03-20 01:09:00,
2013-03-19 21:14:00,73.0,58.7,32.33,East,90,0.0,3.0,61,0.00,,,0.00,Weather View 32 v70,2013-03-20 01:14:00,
2013-03-19 21:20:00,72.0,58.2,32.33,East,90,0.0,3.0,62,0.00,,,0.00,Weather View 32 v70,2013-03-20 01:20:00,
2013-03-19 21:24:00,72.0,58.7,32.34,East,90,0.0,3.0,63,0.00,,,0.00,Weather View 32 v70,2013-03-20 01:24:00,
2013-03-19 21:29:00,72.0,58.7,32.34,East,90,0.0,1.0,63,0.00,,,0.00,Weather View 32 v70,2013-03-20 01:29:00,
2013-03-19 21:34:00,72.0,58.7,32.35,East,90,0.0,1.0,63,0.00,,,0.00,Weather View 32 v70,2013-03-20 01:34:00,
2013-03-19 21:40:00,72.0,59.1,32.35,East,90,0.0,1.0,64,0.00,,,0.00,Weather View 32 v70,2013-03-20 01:40:00,
2013-03-19 22:00:00,71.0,59.0,32.37,East,90,0.0,1.0,66,0.00,,,0.00,Weather View 32 v70,2013-03-20 02:00:00,
2013-03-19 22:30:00,70.0,60.1,32.41,East,90,0.0,0.0,71,0.00,,,0.00,Weather View 32 v70,2013-03-20 02:30:00,
2013-03-19 23:00:00,70.0,60.1,32.43,East,90,0.0,0.0,71,0.00,,,0.00,Weather View 32 v70,2013-03-20 03:00:00,
2013-03-19 23:30:00,69.0,60.0,32.46,East,90,0.0,1.0,73,0.00,,,0.00,Weather View 32 v70,2013-03-20 03:30:00,